Temperature
20 20 20 20 20 20 20 19 19 19 19 19 19 19 18 18 18 18 18 17 17 17 17 17 17 17 17 17 17 16 16 16 16 16 16 16 16 16 16 15 15 15 15
20 20 20 20 20 20 20 19 19 19 19 19 19 18 18 18 18 18 18 17 17 17 17 17 17 17 17 16 16 16 16 16 16 16 16 15 15 15 15 15 15 15 15
20 20 20 20 20 20 19 19 19 19 19 19 19 18 18 18 18 18 17 17 17 17 17 16 16 16 16 16 16 16 16 16 16 16 15 15 15 15 15 15 14 14 14
20 20 20 20 20 20 19 19 19 19 19 18 18 18 18 18 18 17 17 17 17 17 16 16 16 16 16 16 16 16 16 16 15 15 15 15 15 15 14 14 14 14 14
21 20 20 20 19 19 19 19 19 18 18 18 18 18 18 17 17 17 17 17 17 16 16 16 16 16 16 16 16 16 15 15 15 15 15 14 14 14 14 14 14 13 13
21 20 20 20 19 19 19 19 18 18 18 18 18 18 17 17 17 17 17 17 16 16 16 16 16 16 16 16 16 15 15 15 15 15 14 14 14 14 14 13 13 13 13
20 20 20 20 19 19 19 18 18 18 18 18 18 17 17 17 17 17 17 16 16 16 16 16 15 15 15 15 15 15 15 15 15 14 14 14 14 14 13 13 13 13 13
20 20 20 19 19 19 18 18 18 18 17 17 17 17 17 17 17 17 16 16 16 16 15 15 15 15 15 15 15 15 15 15 14 14 14 14 14 14 13 13 13 13 13
20 19 19 19 19 19 18 18 18 17 17 17 17 17 17 17 17 16 16 16 16 15 15 15 15 15 15 15 15 14 14 14 14 14 14 14 14 14 13 13 13 12 12
19 19 19 19 19 18 18 18 18 17 17 17 17 17 17 17 16 16 16 15 15 15 15 15 15 15 15 14 14 14 14 14 14 14 14 14 14 13 13 13 13 12 12
19 19 18 18 18 18 18 18 17 17 17 17 16 16 16 16 16 16 16 15 15 15 14 14 14 14 14 14 14 14 14 14 13 13 13 13 13 13 13 13 13 12 12
19 18 18 18 18 18 18 17 17 17 17 16 16 16 16 16 16 16 16 15 15 14 14 14 14 14 14 14 14 14 13 13 13 13 13 13 13 13 13 12 12 12 12
18 18 18 18 18 17 17 17 17 17 16 16 16 16 16 16 16 16 15 15 15 14 14 14 14 14 14 14 13 13 13 13 13 13 12 12 12 12 12 12 12 12 12
18 18 18 18 17 17 17 17 17 17 16 16 16 16 15 15 15 15 15 15 14 14 14 14 14 14 13 13 13 13 13 13 13 12 12 12 12 12 12 12 12 12 11
18 18 17 17 17 17 17 17 16 16 16 16 16 16 15 15 15 15 15 15 14 14 14 14 13 13 13 13 13 13 13 12 12 12 12 12 12 12 11 11 11 11 11
17 17 17 17 17 17 17 17 16 16 16 16 16 16 16 15 15 15 15 14 14 14 13 13 13 13 13 13 13 12 12 12 12 12 12 12 12 11 11 11 11 11 11
17 17 17 17 17 17 17 16 16 16 16 16 16 15 15 15 15 15 14 14 14 13 13 13 13 13 13 12 12 12 12 12 12 12 12 12 11 11 11 11 11 10 10
17 17 17 17 17 17 17 16 16 16 16 15 15 15 15 15 15 14 14 14 13 13 13 13 12 12 12 12 12 12 12 12 12 12 11 11 11 11 11 10 10 10 10
16 16 16 16 16 16 16 16 16 15 15 15 15 15 14 14 14 14 13 13 13 13 13 12 12 12 12 12 12 12 11 11 11 11 11 11 11 10 10 10 10 10 10
16 16 16 16 16 16 16 16 15 15 15 14 14 14 14 14 14 13 13 13 13 12 12 12 12 12 12 12 11 11 11 11 11 11 10 10 10 10 10 10 10 10 10
15 16 16 16 15 16 15 15 15 15 14 14 14 14 14 14 14 13 13 13 13 12 12 12 12 12 11 11 11 11 11 11 10 10 10 10 10 10 10 9 9 9 9
15 15 15 15 15 15 15 15 15 15 14 14 14 14 14 13 13 13 13 13 12 12 12 12 11 11 11 11 11 10 10 10 10 10 10 10 10 10 9 9 9 9 9
14 14 14 14 15 14 14 14 14 14 14 13 13 13 13 13 13 13 12 12 12 12 11 11 11 11 11 11 11 10 10 10 10 10 10 10 9 9 9 9 9 9 9
14 14 14 14 14 14 14 14 14 13 13 13 13 13 13 13 12 12 12 12 12 12 11 11 11 11 11 11 10 10 10 10 9 9 9 9 9 9 9 9 8 8 8
13 13 13 13 14 14 14 13 13 13 13 13 12 12 12 12 12 12 12 12 12 11 11 11 11 11 11 10 10 10 10 9 9 9 9 9 9 9 8 8 8 8 8
13 13 13 13 13 13 13 13 13 13 12 12 12 12 12 12 12 12 11 11 11 11 11 11 11 11 10 10 10 10 9 9 9 9 9 9 9 8 8 8 8 8 7
Wind_Speed
7 6 5 6 6 5 4 3 3 2 2 1 1 1 1 1 1 1 2 2 1 2 2 2 3 3 3 3 2 2 2 1 2 2 0 1 1 1 1 1 3 4 4
7 7 6 5 5 5 4 4 4 3 3 2 2 2 2 1 2 2 2 2 2 2 2 2 3 3 3 3 3 3 2 2 2 2 1 0 1 1 1 1 1 2 2
8 7 6 5 5 5 4 4 3 3 2 2 2 2 2 1 1 1 1 2 2 1 2 2 2 3 3 3 3 3 2 2 1 1 2 1 1 1 1 1 1 0 2
7 7 7 6 5 4 4 4 3 3 3 2 2 2 2 1 1 1 1 1 1 1 1 2 2 2 3 4 3 3 3 2 2 2 1 1 1 0 0 1 1 1 1
6 7 6 5 4 4 4 4 3 3 3 2 2 2 2 2 2 1 2 2 1 1 1 2 2 2 3 3 3 2 3 2 2 2 2 1 1 1 1 1 2 2 1
5 5 5 5 5 5 4 4 3 3 2 2 2 2 2 2 1 1 2 1 1 2 2 2 2 1 1 1 2 1 1 2 2 2 2 2 2 2 2 2 2 2 3
5 4 5 5 5 4 5 4 4 3 3 3 2 2 1 0 1 1 2 2 2 2 2 3 4 2 1 2 3 3 3 3 3 3 3 3 2 2 2 2 2 2 3
5 5 5 5 4 4 4 4 3 3 2 2 2 2 2 2 1 0 2 3 2 2 2 3 2 2 3 3 3 2 2 3 4 3 3 4 3 2 3 3 3 2 3
5 4 4 5 5 4 5 4 3 3 3 3 3 3 2 2 3 2 2 3 3 3 2 2 2 2 2 3 2 3 3 3 4 3 5 5 5 4 3 2 2 2 3
4 5 4 5 5 5 5 4 4 3 3 3 3 3 3 3 4 4 3 3 3 3 2 2 1 1 2 2 3 3 4 4 4 4 4 4 4 4 4 4 3 3 3
3 4 4 4 5 4 4 3 3 3 3 3 3 3 3 3 4 5 4 3 4 3 3 2 1 1 3 4 4 4 5 5 5 5 4 3 3 3 3 3 3 3 3
3 3 4 4 5 4 4 3 3 3 4 3 3 3 3 3 4 4 5 5 5 3 3 2 1 2 4 6 5 6 7 5 4 4 3 3 3 2 2 3 3 3 3
2 3 3 4 4 3 4 4 4 4 4 4 4 4 4 3 3 5 5 6 5 4 3 2 2 3 4 5 7 8 6 4 4 4 3 3 2 3 2 2 2 2 2
3 3 3 4 4 4 4 4 5 5 5 4 4 4 4 3 3 3 3 3 4 4 4 4 5 6 6 6 4 4 4 3 4 4 3 3 2 2 2 2 2 2 2
3 3 3 4 4 3 4 3 5 5 5 5 4 4 3 3 4 5 4 4 3 3 3 3 4 3 3 3 3 2 2 2 3 3 3 3 3 2 2 2 2 2 2
3 3 4 4 3 3 4 3 2 2 3 4 5 4 3 3 5 4 4 3 3 3 3 4 4 3 3 2 2 2 2 2 2 3 3 3 3 3 2 2 2 2 3
4 4 4 4 4 5 5 5 3 1 1 2 3 4 4 3 4 4 3 3 3 3 3 4 4 3 2 2 2 2 2 1 2 2 2 3 3 3 2 2 2 2 2
4 5 5 5 5 5 4 4 4 3 2 1 1 2 4 4 4 4 4 3 1 2 4 4 3 2 2 2 2 2 2 1 1 2 3 3 3 3 3 3 2 3 3
5 4 4 4 4 4 4 4 4 4 3 2 1 0 2 3 3 2 3 2 3 3 3 3 3 2 2 1 1 2 2 2 1 2 2 3 3 3 3 3 3 4 3
4 5 5 5 5 4 4 4 4 4 4 3 3 2 2 3 2 3 3 4 4 4 3 3 2 2 2 1 1 1 2 2 1 2 3 3 3 3 4 4 4 4 3
4 4 5 5 5 4 4 4 4 3 3 3 3 3 4 4 3 4 4 4 4 4 3 2 2 2 1 1 1 2 2 2 2 2 2 3 3 3 4 4 4 4 3
5 4 4 4 4 4 3 4 3 3 3 3 2 2 5 4 3 3 4 4 4 3 3 2 2 1 0 0 1 1 2 2 2 3 3 3 3 3 3 3 3 3 3
4 4 4 3 3 2 3 3 2 3 3 3 3 3 4 4 3 3 3 3 2 2 2 1 1 1 1 0 0 1 1 2 3 3 3 3 3 3 3 3 3 3 3
4 3 3 3 2 2 2 1 1 1 1 2 2 3 3 2 2 2 2 2 2 1 1 1 1 0 0 1 2 2 2 2 3 3 4 4 4 3 3 3 3 3 3
3 3 3 2 2 1 1 1 1 1 1 1 1 1 2 2 2 1 1 1 1 1 1 1 1 1 1 1 2 2 4 3 4 4 4 3 4 3 3 3 2 3 3
3 3 2 2 1 1 1 1 1 1 1 1 1 1 1 1 2 1 1 1 1 1 0 0 1 1 2 2 2 3 3 3 4 5 4 3 3 2 2 2 3 2 2
Wind_Direction
183 186 191 184 193 203 205 206 213 222 233 219 220 222 225 221 225 235 247 280 290 294 297 304 308 314 322 317 315 310 299 284 278 302 268 55 40 13 56 198 186 170 178
182 182 191 188 188 196 198 202 205 213 216 220 222 227 238 226 218 231 256 275 271 280 284 297 306 304 310 311 315 311 306 293 270 276 291 306 291 261 248 255 234 178 158
183 187 186 196 195 195 196 194 201 209 217 222 222 230 237 237 229 232 247 268 277 290 304 304 306 315 315 309 300 305 302 307 309 280 279 300 286 280 316 300 330 156 213
177 186 188 193 194 192 194 193 196 200 205 209 221 228 231 226 237 237 222 242 276 288 313 318 319 321 318 308 295 301 308 318 321 305 274 282 310 323 277 290 305 291 266
174 184 186 185 185 187 194 194 192 206 215 202 210 219 232 226 239 249 243 224 239 279 294 297 325 358 352 325 316 325 327 326 318 302 287 283 308 345 296 277 293 295 281
173 183 177 177 183 186 193 192 196 204 207 203 208 223 240 246 31 34 325 279 249 262 279 288 258 264 323 302 280 281 290 296 307 296 292 300 296 292 298 293 296 301 293
177 182 174 177 186 190 199 194 202 202 202 212 213 204 199 128 69 44 343 276 274 275 280 282 287 294 300 280 265 241 246 251 245 261 288 285 290 300 286 289 291 284 288
182 186 177 180 189 189 198 201 196 195 201 205 211 212 197 217 205 262 313 255 262 266 280 293 300 303 307 315 289 280 266 269 258 251 259 271 276 279 268 250 259 275 286
188 187 184 184 190 194 197 196 191 189 196 205 198 203 203 205 204 217 266 259 257 263 262 291 307 313 324 332 295 288 288 282 281 274 268 258 256 262 264 259 258 274 291
190 186 186 187 194 196 197 195 197 192 201 216 211 204 207 206 209 216 235 261 261 263 255 260 308 301 310 312 286 278 275 286 292 290 279 262 247 238 241 235 239 249 270
184 178 184 190 197 196 190 190 187 201 210 221 218 215 213 203 207 217 225 248 269 270 264 275 300 275 265 268 271 268 267 283 286 275 272 259 249 242 235 242 240 244 259
175 181 187 190 211 203 181 190 203 216 213 218 222 226 227 204 198 206 209 228 264 276 276 280 307 307 272 266 267 272 279 287 278 281 281 276 266 260 254 249 244 243 239
191 191 194 197 208 193 187 203 215 217 223 227 225 231 232 217 200 205 210 221 238 252 278 274 269 261 272 267 259 267 274 273 275 272 276 279 269 258 256 249 246 235 254
214 205 207 211 210 194 193 206 220 223 227 225 224 227 229 220 214 206 214 224 231 247 264 265 251 250 259 264 271 260 248 258 266 270 273 277 279 268 264 265 267 269 282
241 229 225 227 213 201 209 215 220 224 231 222 229 230 226 230 226 211 214 220 224 227 233 248 253 251 248 253 254 251 250 253 266 282 289 293 283 280 278 274 266 273 270
250 243 243 236 218 217 220 247 332 261 224 209 210 218 229 212 196 191 198 199 206 200 222 254 255 254 255 247 250 259 254 255 267 270 269 276 288 286 282 281 271 269 276
252 247 250 247 226 223 224 222 231 285 295 232 210 201 206 201 177 178 182 176 190 181 220 254 260 259 262 258 259 266 273 281 291 288 284 277 284 290 288 285 282 285 286
256 241 243 245 232 225 229 232 229 227 231 272 309 181 187 192 185 179 164 143 211 218 239 251 258 265 270 284 289 291 293 286 282 292 296 292 287 296 301 297 287 287 281
275 264 251 250 247 235 234 234 233 228 227 226 241 242 195 190 169 174 169 224 236 235 237 247 258 266 270 281 301 303 304 301 310 297 300 302 294 288 293 296 288 284 279
275 270 265 255 249 239 235 239 238 227 223 223 222 203 173 169 183 190 207 229 241 244 242 249 254 260 263 269 299 300 296 297 309 302 306 308 307 297 287 286 290 285 277
280 273 265 261 250 245 234 231 233 235 230 222 224 205 187 198 204 204 208 219 231 247 249 244 248 256 266 277 284 288 295 305 314 318 320 314 304 297 286 281 289 292 292
277 271 262 259 263 261 248 236 226 222 222 224 217 201 184 201 216 214 214 218 221 230 236 230 245 263 300 304 294 299 311 320 323 318 310 304 300 296 297 298 294 296 304
272 266 260 255 259 256 246 241 229 226 225 218 213 197 195 219 224 216 213 224 220 217 229 229 224 255 15 353 330 49 0 335 323 324 318 310 306 306 307 310 310 308 304
274 271 263 246 238 234 237 231 212 227 239 238 213 196 197 205 224 239 223 202 188 196 211 200 171 168 76 60 65 68 53 5 334 313 304 303 307 311 314 310 313 316 310
281 276 262 246 243 234 209 172 169 179 208 238 255 228 183 186 201 211 216 192 171 166 189 195 158 127 75 73 64 60 51 29 347 325 303 291 296 301 305 314 317 315 311
272 268 265 243 226 220 182 180 163 170 207 202 234 228 201 207 206 190 160 128 125 125 183 101 81 90 94 84 80 69 60 26 343 323 307 291 283 288 305 312 321 319 320
Height
1522 1524 1526 1527 1529 1530 1531 1532 1532 1533 1533 1533 1533 1533 1532 1532 1531 1531 1530 1530 1529 1529 1528 1528 1527 1526 1526 1525 1525 1524 1524 1524 1522 1521 1521 1520 1519 1517 1516 1514 1513 1512 1511
1520 1522 1524 1525 1527 1528 1528 1529 1530 1531 1531 1531 1531 1531 1531 1530 1530 1529 1529 1528 1528 1527 1527 1526 1525 1525 1524 1523 1523 1522 1522 1521 1521 1519 1519 1518 1517 1516 1515 1513 1512 1511 1509
1518 1520 1521 1523 1524 1525 1526 1527 1528 1529 1529 1529 1529 1529 1529 1529 1528 1528 1527 1527 1526 1525 1525 1524 1523 1523 1521 1521 1520 1520 1519 1519 1519 1518 1516 1516 1515 1514 1513 1512 1511 1509 1508
1516 1518 1519 1520 1522 1523 1524 1525 1526 1526 1527 1527 1527 1527 1527 1527 1526 1526 1525 1525 1524 1523 1523 1522 1521 1520 1519 1519 1518 1517 1517 1517 1516 1515 1515 1514 1513 1512 1511 1510 1508 1508 1507
1514 1515 1517 1518 1520 1521 1522 1523 1524 1524 1525 1525 1525 1524 1525 1524 1524 1523 1523 1523 1522 1521 1520 1520 1519 1519 1518 1517 1516 1515 1515 1514 1513 1513 1513 1512 1511 1510 1509 1508 1506 1505 1504
1512 1514 1515 1516 1518 1518 1520 1521 1521 1522 1522 1522 1522 1522 1522 1522 1522 1522 1521 1520 1520 1519 1518 1518 1517 1516 1515 1515 1514 1513 1513 1512 1511 1511 1510 1509 1508 1508 1507 1506 1505 1503 1501
1510 1512 1513 1514 1515 1516 1517 1518 1519 1519 1519 1519 1520 1520 1520 1520 1520 1519 1519 1518 1517 1517 1516 1516 1515 1514 1513 1512 1511 1511 1510 1510 1509 1509 1508 1507 1506 1506 1504 1503 1502 1501 1499
1509 1510 1511 1512 1514 1514 1515 1515 1516 1517 1517 1517 1517 1517 1517 1517 1517 1517 1516 1516 1515 1514 1514 1513 1512 1511 1511 1510 1509 1508 1507 1507 1507 1506 1505 1505 1504 1504 1502 1501 1500 1498 1497
1506 1508 1508 1510 1511 1512 1512 1513 1513 1514 1514 1514 1514 1514 1514 1514 1514 1514 1514 1513 1513 1512 1511 1511 1510 1509 1508 1507 1506 1505 1505 1504 1504 1503 1503 1502 1502 1501 1500 1499 1497 1496 1494
1504 1505 1506 1507 1508 1509 1510 1510 1511 1511 1511 1511 1511 1511 1511 1511 1511 1511 1511 1510 1509 1509 1508 1508 1507 1506 1505 1504 1503 1502 1501 1501 1501 1500 1500 1499 1498 1498 1497 1496 1495 1493 1491
1502 1503 1504 1505 1506 1506 1507 1508 1508 1508 1508 1508 1508 1508 1508 1508 1508 1508 1508 1507 1507 1506 1505 1505 1504 1504 1503 1502 1501 1500 1499 1499 1499 1498 1497 1496 1495 1494 1494 1493 1492 1491 1489
1500 1501 1501 1502 1504 1505 1505 1505 1505 1505 1506 1506 1505 1505 1505 1505 1505 1505 1504 1504 1504 1503 1503 1502 1502 1501 1500 1499 1498 1498 1497 1497 1496 1495 1494 1493 1492 1491 1491 1490 1489 1488 1487
1498 1498 1499 1500 1501 1502 1502 1502 1502 1502 1503 1502 1502 1502 1502 1502 1502 1502 1501 1501 1501 1500 1500 1499 1499 1498 1497 1496 1496 1495 1495 1494 1493 1493 1492 1491 1490 1489 1488 1487 1486 1485 1485
1496 1496 1497 1498 1498 1499 1499 1499 1499 1499 1499 1499 1499 1499 1499 1499 1498 1498 1497 1497 1497 1497 1496 1496 1495 1495 1494 1493 1493 1492 1492 1491 1491 1490 1489 1488 1487 1486 1484 1483 1483 1482 1481
1493 1494 1495 1495 1495 1495 1495 1495 1495 1496 1496 1496 1496 1496 1495 1495 1495 1495 1495 1494 1494 1493 1493 1492 1492 1491 1490 1490 1489 1489 1489 1488 1487 1488 1486 1485 1484 1483 1482 1481 1480 1479 1478
1491 1491 1492 1492 1492 1492 1492 1492 1492 1493 1493 1493 1493 1493 1492 1492 1491 1491 1491 1491 1491 1491 1490 1489 1489 1488 1488 1487 1487 1486 1486 1485 1485 1484 1483 1482 1482 1481 1480 1479 1478 1476 1476
1487 1487 1488 1489 1489 1489 1489 1489 1488 1489 1489 1489 1489 1488 1488 1488 1488 1488 1488 1488 1488 1487 1487 1486 1486 1486 1485 1485 1484 1483 1483 1482 1481 1481 1480 1479 1479 1478 1477 1475 1474 1473 1472
1484 1484 1485 1485 1485 1485 1485 1486 1485 1485 1484 1484 1484 1484 1484 1484 1484 1485 1485 1484 1484 1484 1484 1483 1483 1483 1482 1482 1481 1481 1480 1479 1478 1478 1477 1476 1476 1475 1474 1472 1471 1470 1469
1481 1481 1481 1481 1481 1482 1482 1482 1482 1482 1481 1480 1480 1480 1480 1480 1480 1481 1480 1480 1480 1480 1480 1480 1480 1480 1479 1479 1478 1478 1478 1477 1476 1475 1474 1473 1472 1471 1470 1469 1468 1467 1466
1477 1477 1478 1477 1478 1478 1478 1478 1478 1478 1477 1477 1476 1476 1475 1476 1475 1475 1476 1476 1476 1477 1477 1477 1476 1476 1476 1475 1475 1475 1475 1474 1473 1472 1471 1470 1469 1468 1467 1466 1465 1464 1463
1474 1474 1474 1474 1474 1474 1474 1474 1474 1474 1474 1473 1473 1472 1472 1472 1472 1472 1472 1472 1472 1473 1473 1473 1473 1473 1473 1472 1472 1471 1471 1471 1470 1469 1468 1467 1466 1465 1464 1463 1462 1461 1460
1470 1470 1470 1470 1470 1470 1470 1470 1470 1470 1470 1470 1469 1469 1469 1469 1469 1469 1468 1469 1468 1469 1469 1470 1470 1469 1469 1469 1468 1468 1468 1467 1466 1465 1465 1464 1463 1462 1461 1460 1459 1458 1457
1466 1466 1466 1466 1466 1466 1466 1466 1466 1466 1467 1467 1466 1466 1466 1466 1466 1466 1466 1466 1466 1466 1466 1466 1466 1465 1465 1465 1465 1465 1464 1464 1463 1462 1462 1461 1460 1459 1458 1457 1456 1455 1453
1463 1462 1462 1462 1462 1462 1462 1462 1462 1463 1463 1463 1463 1463 1463 1463 1463 1463 1463 1463 1463 1463 1463 1463 1463 1462 1462 1462 1462 1461 1461 1460 1460 1459 1459 1458 1457 1456 1455 1454 1453 1452 1451
1459 1459 1459 1459 1459 1459 1459 1459 1459 1459 1459 1460 1460 1460 1460 1460 1460 1460 1460 1460 1460 1460 1460 1460 1460 1459 1459 1459 1458 1458 1457 1457 1457 1456 1455 1455 1454 1453 1452 1451 1450 1449 1448
1456 1456 1456 1456 1456 1456 1456 1456 1456 1456 1456 1456 1458 1457 1457 1457 1457 1457 1457 1458 1457 1457 1457 1457 1457 1456 1456 1455 1455 1455 1454 1454 1453 1453 1452 1451 1451 1450 1449 1449 1448 1447 1446